Vagabond Aaf / Yakim, WA

11:31 PM PDT on March 27, 2017 (GMT -0700)
Vagabond Aaf / Yakim

Weather History for K1YT - January, 2014

Change the Weather History Date:

Monday, January 20, 2014

  Actual Average (KYKM) Record (KYKM)
Temperature  
Mean Temperature 30 °F -  
Max Temperature 31 °F 38 °F 58 °F (1972)
Min Temperature 28 °F 25 °F -19 °F (1954)
Degree Days  
Heating Degree Days 36    
Moisture  
Dew Point 27 °F    
Average Humidity 90    
Maximum Humidity 93    
Minimum Humidity 84    
Precipitation  
Precipitation 0.00 in - - ()
Sea Level Pressure  
Sea Level Pressure 30.50 in    
Wind  
Wind Speed 5 mph (South)    
Max Wind Speed 10 mph    
Max Gust Speed -    
Visibility 12 miles    
Events      
Averages and records for this station are not official NWS values.
T = Trace of Precipitation, MM = Missing Value Source: NWS Daily Summary

Daily Weather History Graph

Daily Weather History Graph

Search for Another Location

Airport or City:

Trip Planner

Search our weather history database for the weather conditions in past years. The results will help you decide how hot, cold, wet, or windy it might be!

Date:

Astronomy

Jan. 20, 2014 Rise Set
Actual Time 7:38 AM PST 4:47 PM PST
Civil Twilight 7:04 AM PST 5:21 PM PST
Nautical Twilight 6:27 AM PST 5:58 PM PST
Astronomical Twilight 5:51 AM PST 6:34 PM PST
Moon 9:47 PM PST (1/20) 9:22 AM PST (1/20)
Length of Visible Light 10h 16m
Length of Day
9h 09m
Waning Gibbous, 82% of the Moon is Illuminated
Jan 20
Waning Gibbous
Jan 23
Last Quarter
Jan 30
New
Feb 6
First Quarter
Feb 14
Full

Hourly Weather History & Observations

Time (PST) Temp. Windchill Dew Point Humidity Pressure Visibility Wind Dir Wind Speed Gust Speed Precip Events Conditions
12:56 AM 29.8 °F 23.0 °F 27.3 °F 90% 30.42 in 12.0 mi ESE 6.9 mph - N/A   Overcast
1:41 AM 28.4 °F 19.1 °F 26.6 °F 93% 30.43 in 12.0 mi East 10.4 mph - N/A   Mostly Cloudy
1:56 AM 28.8 °F 20.9 °F 26.6 °F 92% 30.43 in 12.0 mi ESE 8.1 mph - N/A   Mostly Cloudy
2:06 AM 28.4 °F 20.4 °F 26.6 °F 93% 30.44 in 12.0 mi SE 8.1 mph - N/A   Mostly Cloudy
2:56 AM 29.1 °F 25.4 °F 26.8 °F 91% 30.45 in 12.0 mi East 3.5 mph - N/A   Overcast
3:56 AM 28.9 °F 22.8 °F 26.6 °F 91% 30.47 in 12.0 mi SSE 5.8 mph - N/A   Overcast
4:56 AM 29.1 °F 25.4 °F 26.6 °F 90% 30.48 in 12.0 mi NNE 3.5 mph - N/A   Overcast
5:56 AM 28.9 °F - 26.2 °F 90% 30.50 in 12.0 mi WSW 1.2 mph - N/A   Overcast
6:36 AM 28.4 °F - 26.6 °F 93% 30.50 in 12.0 mi NW 1.2 mph - N/A   Overcast
6:56 AM 28.9 °F - 26.8 °F 92% 30.51 in 12.0 mi Variable 1.2 mph - N/A   Overcast
7:06 AM 28.4 °F - 26.6 °F 93% 30.51 in 12.0 mi Variable 1.2 mph - N/A   Overcast
7:31 AM 28.4 °F - 26.6 °F 93% 30.52 in 12.0 mi NE 2.3 mph - N/A   Overcast
7:56 AM 28.4 °F 24.6 °F 26.2 °F 92% 30.52 in 12.0 mi North 3.5 mph - N/A   Overcast
8:06 AM 28.4 °F 24.6 °F 26.6 °F 93% 30.52 in 12.0 mi North 3.5 mph - N/A   Overcast
8:56 AM 28.6 °F 24.8 °F 26.2 °F 91% 30.53 in 12.0 mi NNW 3.5 mph - N/A   Overcast
9:46 AM 28.4 °F - 26.6 °F 93% 30.54 in 12.0 mi SSW 1.2 mph - N/A   Overcast
9:51 AM 28.4 °F - 26.6 °F 93% 30.54 in 12.0 mi SW 2.3 mph - N/A   Overcast
9:56 AM 29.3 °F - 26.8 °F 90% 30.54 in 12.0 mi Variable 2.3 mph - N/A   Overcast
10:26 AM 30.2 °F 26.7 °F 26.6 °F 86% 30.54 in 12.0 mi WNW 3.5 mph - N/A   Overcast
10:31 AM 30.2 °F - 26.6 °F 86% 30.54 in 12.0 mi Variable 1.2 mph - N/A   Overcast
10:56 AM 30.4 °F - 27.1 °F 88% 30.54 in 12.0 mi East 2.3 mph - N/A   Overcast
11:21 AM 30.2 °F 24.3 °F 26.6 °F 86% 30.54 in 12.0 mi East 5.8 mph - N/A   Overcast
11:56 AM 31.3 °F 24.7 °F 27.0 °F 84% 30.52 in 12.0 mi ENE 6.9 mph - N/A   Overcast
12:56 PM 31.5 °F 26.8 °F 27.3 °F 85% 30.51 in 12.0 mi NNE 4.6 mph - N/A   Overcast
1:56 PM 31.1 °F 25.4 °F 27.7 °F 87% 30.49 in 12.0 mi SSW 5.8 mph - N/A   Overcast
2:56 PM 30.7 °F 26.0 °F 27.5 °F 88% 30.49 in 11.0 mi SSW 4.6 mph - N/A   Overcast
3:56 PM 30.6 °F 23.8 °F 27.3 °F 88% 30.49 in 12.0 mi South 6.9 mph - N/A   Overcast
4:56 PM 30.2 °F 25.4 °F 27.3 °F 89% 30.49 in 11.0 mi South 4.6 mph - N/A   Overcast
5:41 PM 30.2 °F 26.7 °F 26.6 °F 86% 30.49 in 12.0 mi WSW 3.5 mph - N/A   Overcast
5:56 PM 30.0 °F 25.2 °F 27.3 °F 90% 30.49 in 12.0 mi WSW 4.6 mph - N/A   Overcast
6:56 PM 29.8 °F 23.9 °F 27.3 °F 90% 30.49 in 10.0 mi South 5.8 mph - N/A   Overcast
7:56 PM 29.7 °F 24.7 °F 27.1 °F 90% 30.49 in 11.0 mi South 4.6 mph - N/A   Overcast
8:56 PM 29.7 °F - 27.3 °F 91% 30.49 in 9.0 mi West 1.2 mph - N/A   Overcast
9:56 PM 29.7 °F - 27.0 °F 90% 30.50 in 10.0 mi South 2.3 mph - N/A   Overcast
10:56 PM 29.5 °F - 26.8 °F 90% 30.50 in 9.0 mi SW 1.2 mph - N/A   Overcast
11:56 PM 29.3 °F - 27.0 °F 91% 30.50 in 9.0 mi South 2.3 mph - N/A   Overcast